Location: Bush Observatory
(40.2653°N, 94.3194°W)
Time: 16:32:33
(UTC-05:00)

Daily predictions for brighter satellites

Satellite Brightness Start Highest point End
(mag) Time Altitude Azimuth Time Altitude Azimuth Time Altitude Azimuth
Cosmos 1452 Rocket 4.1 20:33:58 10° SSE 20:38:46 37° E 20:43:36 10° NE
ALOS 4.0 20:34:32 10° SSW 20:38:49 36° W 20:43:08 10° NNW
Cosmos 839 Rocket 4.3 20:34:19 10° S 20:40:17 44° ESE 20:46:06 10° NE
Cosmos 1378 Rocket 4.1 20:36:44 10° NNW 20:41:09 67° W 20:45:30 10° S
Cosmos 1782 Rocket 3.5 20:36:52 10° S 20:41:12 80° E 20:45:32 10° N
GPS 2-05 Rocket1 3.9 20:38:39 10° SW 20:41:31 26° SSE 20:44:21 10° ESE
Meteor 1-14 Rocket 4.5 20:39:00 10° SSW 20:44:41 77° W 20:50:17 10° N
ATLAS 2AS CENTAUR R/B 4.1 20:40:18 10° SE 20:45:20 19° ESE 20:50:33 10° ENE
Cosmos 407 Rocket 3.6 20:41:46 10° NNW 20:47:09 76° ENE 20:52:28 10° SSE
Meteor 1-25 Rocket 4.4 20:41:30 10° S 20:47:20 88° E 20:53:12 10° N
Cosmos 1812 2.9 20:43:45 10° N 20:47:39 76° W 20:51:30 10° S
Cosmos 1190 Rocket 4.0 20:43:39 10° NNW 20:48:56 86° ENE 20:54:13 10° SSE
SJ-6B 4.3 20:46:06 10° S 20:49:54 41° W 20:53:48 10° NNW
Abrixas rocket 3.8 20:47:54 10° W 20:50:57 35° NNW 20:54:01 10° NE
Tiangong 1 1.4 20:48:41 10° W 20:51:25 51° N 20:54:07 10° ENE
NOSS 3-1 (A) 3.4 20:45:49 10° SSW 20:51:32 88° SE 20:57:59 10° NE
Cosmos 2360 4.2 20:46:32 10° SSW 20:52:10 69° ESE 20:57:51 10° NNE
Cosmos 921 Rocket 2.8 20:48:29 10° S 20:52:39 77° ESE 20:56:51 10° NNE
Cosmos 2151 Rocket 4.2 20:49:53 10° SSE 20:53:50 34° E 20:57:49 10° NNE
CZ-4C R/B 3.5 20:47:47 10° NW 20:54:58 61° WSW 21:02:50 10° SSE
Meteor 1-18 Rocket 4.5 20:49:51 10° N 20:55:48 85° W 21:01:44 10° S
Cosmos 1602 4.2 20:52:48 10° SSE 20:56:21 37° E 20:59:55 10° NNE
Cosmos 2297 Rocket 4.0 20:52:24 10° NW 20:57:22 32° WSW 21:02:19 10° SSW
Cosmos 1975 Rocket 3.2 20:53:50 10° N 20:58:19 81° W 21:02:45 10° S
DELTA 2 R/B (1) 3.7 20:56:12 10° W 21:01:48 74° SSW 21:06:44 14° ESE
Cosmos 1939 Rocket 3.2 20:58:51 10° SSE 21:02:41 46° ENE 21:06:29 10° N
Cosmos 676 Rocket 4.0 20:59:41 10° NNW 21:05:00 72° ENE 21:10:19 10° SSE
Cosmos 1655 Rocket 4.0 21:01:10 10° S 21:07:23 75° E 21:13:43 10° N
Cosmos 2026 Rocket 4.2 21:01:07 10° S 21:07:26 84° W 21:13:51 10° N
Helios 1B rocket 3.3 21:05:23 10° NE 21:08:59 29° E 21:12:35 10° SSE
USA 186 2.3 21:06:46 10° S 21:10:02 63° W 21:13:24 10° NNW
Cosmos 1428 Rocket 4.5 21:04:17 10° S 21:10:33 74° E 21:16:48 10° N
Okean 1 3.4 21:06:54 10° N 21:10:53 81° W 21:14:51 10° S
Cosmos 1536 3.8 21:11:13 14° SE 21:14:05 28° E 21:17:37 10° NNE
Cosmos 44 Rocket 3.2 21:10:14 10° NNW 21:14:59 75° ENE 21:18:49 16° SE
Lacrosse 5 rocket 1.2 21:14:13 10° NW 21:17:52 62° NE 21:20:14 21° ESE
Spot 2 Rocket 4.0 21:14:23 10° S 21:19:25 61° WSW 21:24:29 10° NNW
Meteor 1-19 Rocket 4.3 21:14:09 10° N 21:20:00 64° ENE 21:25:36 11° SSE
SeaSat 1 2.7 21:15:30 10° NNE 21:20:26 73° WNW 21:25:20 10° SW
SWAS 4.4 21:17:05 10° NNW 21:21:22 87° WSW 21:24:49 15° SSE
Cosmos 2322 Rocket 2.4 21:16:01 10° S 21:21:28 48° ESE 21:26:55 10° NE
Cosmos 1536 Rocket 3.7 21:18:16 10° N 21:22:32 54° E 21:25:43 17° SSE
Cosmos 2263 Rocket 3.1 21:19:41 10° N 21:24:52 34° ENE 21:28:03 20° ESE
Cosmos 1140 Rocket 3.5 21:19:52 10° NNW 21:25:07 76° ENE 21:29:22 16° SSE
ARGOS 4.3 21:23:10 18° ESE 21:25:48 27° ENE 21:30:12 10° N
BREEZE-M DEB (TANK) 2.6 21:24:33 10° SW 21:27:22 84° SE 21:35:13 10° ENE
Cosmos 1954 Rocket 4.1 21:22:45 10° NNW 21:28:05 86° WSW 21:32:50 13° SSE
NOSS 2-3 (C) 4.2 21:25:07 10° S 21:29:25 40° ESE 21:34:19 10° NE
Okean 2 Rocket 4.4 21:26:09 10° SSW 21:30:25 43° WNW 21:34:45 10° N
SL-16 R/B 2.2 21:25:10 10° S 21:30:41 57° ESE 21:36:15 10° NNE
Meteor 1-29 3.4 21:29:55 10° NNE 21:33:09 39° E 21:34:11 31° SE
H-2A R/B 3.5 21:31:59 17° E 21:33:36 20° ENE 21:37:11 10° NNE
Cosmos 614 Rocket 3.9 21:30:17 10° NNW 21:35:25 80° ENE 21:38:58 20° SSE
SPOT 5 4.1 21:37:07 22° E 21:38:38 25° ENE 21:42:31 10° NNE
ERBS 3.6 21:36:56 10° WSW 21:40:16 43° NW 21:43:37 10° NNE
Cosmos 1741 Rocket 4.2 21:35:14 10° N 21:40:23 55° ENE 21:43:02 27° SE
Helios 1A 2.9 21:38:36 20° SSE 21:41:26 86° E 21:45:43 10° NNW
Lacrosse 5 2.5 21:40:31 10° S 21:44:57 31° ESE 21:49:24 10° ENE
EXPRESS MD2 3.6 21:42:29 10° WSW 21:45:11 56° NNW 21:50:00 10° NE
Envisat 4.1 21:43:39 10° S 21:48:26 42° W 21:53:15 10° NNW
ERS-1 Rocket 3.1 21:46:08 29° SE 21:48:34 57° ENE 21:53:29 10° N
Uosat 12 SS-18 rocket 4.4 21:46:46 10° SSW 21:51:30 88° ESE 21:57:20 10° NNE
Okean 2 4.4 21:48:26 10° NNE 21:52:01 29° ENE 21:52:05 29° ENE
Meteor 1-5 Rocket 4.0 21:50:02 17° S 21:54:06 63° E 21:59:21 10° NNE
Cosmos 2360 Rocket 2.7 21:55:38 33° SE 21:56:53 37° ESE 22:02:00 10° NE
YAOGAN 6 3.4 21:55:17 21° SSW 21:57:21 47° W 22:00:47 10° NNW
Cosmos 1980 Rocket 4.2 21:53:17 10° WSW 21:58:10 30° WNW 22:03:05 10° N
Atlas Centaur 2 3.2 21:55:31 10° WSW 22:02:29 37° S 22:04:26 31° SSE
Meteor 2-4 Rocket 3.8 21:57:34 10° NNW 22:03:06 78° W 22:06:47 23° S
MetOp-B 4.1 22:01:40 35° SE 22:03:53 68° ENE 22:09:12 10° N
Cosmos 44 4.2 22:02:21 10° NW 22:06:26 37° WSW 22:08:37 23° SSW
ATLAS 3B R/B 3.5 22:00:46 10° NNW 22:06:59 37° NE 22:09:41 26° E
NOSS 2-3 (D) 3.7 22:04:21 10° SSW 22:08:59 88° ESE 22:14:21 10° NE
NOAA 11 4.2 22:10:21 29° S 22:13:15 78° WSW 22:18:46 10° NNW
Cosmos 1110 Rocket 4.0 22:15:27 49° SE 22:16:23 57° ESE 22:21:28 10° NNE
Cosmos 2315 Rocket 3.9 22:11:44 10° N 22:18:00 76° E 22:20:28 39° SSE
YAOGAN 11 4.3 22:18:41 51° ENE 22:18:45 51° ENE 22:22:59 10° N
Okean 1-7 Rocket 3.5 22:15:25 10° N 22:19:54 71° E 22:20:18 66° ESE
CZ-4B DEB 4.2 22:20:20 30° W 22:20:20 30° W 22:22:51 10° NNW
Okean 1 Rocket 3.3 22:18:35 31° SSW 22:20:34 67° W 22:24:56 10° N
Cosmos 1850 Rocket 4.5 22:19:13 10° NNW 22:24:26 57° WSW 22:26:30 35° SSW
Cosmos 2266 Rocket 4.4 22:18:37 10° SSW 22:24:34 60° W 22:30:32 10° N
Tiangong 1 3.1 22:24:18 10° WNW 22:25:37 24° WNW 22:25:37 24° WNW
Nadezhda 2 Rocket 4.3 22:24:09 32° S 22:27:12 84° E 22:33:26 10° N
Cosmos 1331 Rocket 3.8 22:32:51 66° SSE 22:33:22 73° ESE 22:38:35 10° NNE
Cosmos 1607 3.9 22:27:00 10° NNW 22:33:30 87° ENE 22:35:13 53° SE
SPOT 1/Viking Rocket 3.5 22:33:49 62° ESE 22:34:21 67° ENE 22:39:33 10° N
ATLAS 2AS CENTAUR R/B 3.0 22:27:36 10° SSW 22:35:16 89° WNW 22:43:27 10° NE
Terra 2.8 22:41:15 34° NE 22:41:15 34° NE 22:44:57 10° N
Cosmos 1025 Rocket 3.3 22:38:26 10° NNW 22:42:38 59° W 22:42:44 58° W
USA 245 4.2 22:44:19 52° SSW 22:45:25 66° WSW 22:50:09 10° NNW
Cosmos 1745 Rocket 4.2 22:50:34 51° E 22:50:34 51° E 22:56:12 10° NNE
H-2A R/B 4.0 22:53:26 20° NE 22:53:26 20° NE 22:55:30 10° NNE
Lacrosse 5 rocket 3.8 22:54:47 10° W 22:55:56 13° WSW 22:55:56 13° WSW
SL-08 RB Rocket 4.3 22:57:35 51° W 22:57:36 51° W 23:02:04 10° NNW
Nimbus 7 Rocket 4.3 22:54:45 10° NNE 23:00:38 86° WNW 23:01:32 66° SSW
Cosmos 2237 4.1 23:01:21 74° ENE 23:01:21 74° ENE 23:06:38 10° NNE
Cosmos 2278 Rocket 3.9 22:59:39 10° N 23:03:46 20° NE 23:03:58 20° NE
Cosmos 1238 Rocket 4.0 22:58:20 10° N 23:05:08 82° W 23:06:09 65° SSW
Cosmos 2322 Rocket 4.3 23:01:04 10° WSW 23:05:44 26° NW 23:10:27 10° N
ARGOS 4.1 23:04:41 35° SW 23:05:50 39° W 23:10:51 10° NNW
Cosmos 2263 Rocket 3.3 23:03:39 10° NW 23:08:44 34° WSW 23:09:45 32° SW
Aureole 3 Rocket 4.4 23:03:40 10° N 23:12:35 77° W 23:14:09 58° SSW
H-2A R/B 2.6 23:12:37 49° WSW 23:12:40 49° W 23:17:33 10° NNW
SPOT 5 4.0 23:16:22 35° WSW 23:16:32 35° W 23:20:56 10° NNW
Cosmos 1844 Rocket 3.0 23:12:17 10° NNW 23:17:17 57° NNE 23:17:17 57° NNE
Cosmos 2322 4.3 23:20:22 42° WSW 23:21:51 54° WNW 23:27:25 10° NNE
Lacrosse 5 2.8 23:22:55 10° WSW 23:27:46 45° NW 23:32:39 10° NE
Cosmos 2219 Rocket 3.5 23:30:51 30° NE 23:30:51 30° NE 23:33:42 10° NNE
COSMOS 2428 3.1 23:29:36 58° NNE 23:29:36 58° NNE 23:34:10 10° NNE
USA 238 DEB 3.6 23:25:59 10° NW 23:33:06 81° WSW 23:33:14 80° SW
USA 238 3.6 23:26:05 10° NW 23:33:13 81° WSW 23:33:20 81° SW
NOSS 3-2 (A) 4.1 23:26:11 10° NNW 23:33:38 62° NE 23:34:33 59° E
Cosmos 2360 Rocket 3.8 23:37:16 16° WSW 23:40:53 31° WNW 23:45:53 10° N
Cosmos 2333 Rocket 3.6 23:45:14 28° NE 23:45:14 28° NE 23:47:55 10° NNE
Cosmos 1844 4.2 23:37:47 10° NNW 23:42:15 55° N 23:42:15 55° N
Nadezhda 1 Rocket 4.1 23:37:28 10° NNW 23:43:23 70° WNW 23:43:23 70° WNW
